DW5868 Weather Reports


Display with metric or nautical units.
time (UTC)temp
F
wind
direction
speed
MPH
gust
MPH
rain 1hr
in
rain 24hr
in
rain mn
in
humidity
%
barometer
mb
20260508113056 49 265 5.0 11.0 0.00 0.00 0.00 33 1010.9
20260508111554 48 272 5.0 11.0 0.00 0.00 0.00 35 1011.0
20260508110045 48 279 4.0 10.0 0.00 0.00 0.00 37 1011.1
20260508104543 49 277 6.0 15.0 0.00 0.00 0.00 38 1011.3
20260508103043 49 269 7.0 15.0 0.00 0.00 0.00 39 1011.4
20260508101546 49 275 5.0 13.0 0.00 0.00 0.00 34 1011.6
20260508100039 49 238 6.0 15.0 0.00 0.00 0.00 30 1011.7
20260508094537 49 293 7.0 13.0 0.00 0.00 0.00 28 1011.7
20260508093035 50 287 6.0 13.0 0.00 0.00 0.00 32 1011.8
20260508091556 50 276 7.0 15.0 0.00 0.00 0.00 30 1011.8
20260508090030 51 287 8.0 18.0 0.00 0.00 0.00 38 1011.9
20260508084528 50 271 7.0 13.0 0.00 0.00 0.00 27 1011.9
20260508083032 51 239 4.0 13.0 0.00 0.00 0.00 25 1012.1
20260508081523 51 269 7.0 18.0 0.00 0.00 0.00 28 1012.3
20260508080020 51 267 4.0 13.0 0.00 0.00 0.00 28 1012.3
20260508074519 51 261 6.0 14.0 0.00 0.00 0.00 32 1012.5
20260508073054 53 303 4.0 13.0 0.00 0.00 0.00 23 1012.5
20260508071555 53 211 5.0 16.0 0.00 0.00 0.00 31 1012.5
20260508070058 51 236 5.0 11.0 0.00 0.00 0.00 42 1012.3
20260508064514 52 236 6.0 15.0 0.00 0.00 0.00 50 1012.4
20260508063007 52 278 4.0 14.0 0.00 0.00 0.00 51 1012.4
20260508061507 52 271 4.0 12.0 0.00 0.00 0.00 50 1012.4
20260508054507 52 267 6.0 17.0 0.00 0.00 0.00 54 1012.8
20260508053007 52 284 5.0 13.0 0.00 0.00 0.00 55 1012.7
20260508051506 52 229 4.0 17.0 0.00 0.00 0.00 57 1012.8
20260508044508 52 319 4.0 13.0 0.00 0.00 0.00 62 1012.9
20260508043007 53 287 5.0 11.0 0.00 0.00 0.00 59 1012.8
20260508041511 53 240 4.0 11.0 0.00 0.00 0.00 58 1012.9
20260508034504 54 289 3.0 15.0 0.00 0.00 0.00 58 1012.4
20260508033013 54 80 5.0 16.0 0.00 0.00 0.00 58 1012.2
20260508031504 54 269 5.0 11.0 0.00 0.00 0.00 59 1012.0
20260508024508 55 325 5.0 14.0 0.00 0.00 0.00 58 1011.8
20260508023002 56 227 6.0 15.0 0.00 0.00 0.00 58 1011.9
20260508021501 57 230 4.0 13.0 0.00 0.00 0.00 56 1011.7
20260508014503 60 255 4.0 12.0 0.00 0.00 0.00 50 1011.6
20260508013100 61 261 5.0 12.0 0.00 0.00 0.00 47 1011.7
20260508011559 61 244 4.0 13.0 0.00 0.00 0.00 48 1011.7
20260508010157 62 199 2.0 12.0 0.00 0.00 0.00 47 1011.8
20260508004558 62 244 6.0 14.0 0.00 0.00 0.00 44 1011.9
20260508003104 62 227 4.0 15.0 0.00 0.00 0.00 43 1012.0
20260508001600 62 87 6.0 17.0 0.00 0.00 0.00 42 1012.0
20260508000155 63 210 5.0 14.0 0.00 0.00 0.00 40 1012.1
20260507234554 64 202 6.0 12.0 0.00 0.00 0.00 37 1012.1
20260507233054 65 318 5.0 12.0 0.00 0.00 0.00 37 1012.1
20260507231553 64 245 4.0 15.0 0.00 0.00 0.00 37 1012.2
20260507230154 64 252 4.0 22.0 0.00 0.00 0.00 37 1012.4
20260507224552 65 300 3.0 15.0 0.00 0.00 0.00 36 1012.3
20260507223138 65 194 5.0 20.0 0.00 0.00 0.00 35 1012.7
20260507221548 66 171 3.0 18.0 0.00 0.00 0.00 33 1012.9
20260507220148 66 308 5.0 16.0 0.00 0.00 0.00 30 1013.2
20260507214554 65 270 5.0 16.0 0.00 0.00 0.00 31 1013.4
20260507213046 65 114 6.0 19.0 0.00 0.00 0.00 30 1013.7
20260507211547 65 252 2.0 21.0 0.00 0.00 0.00 31 1013.8
20260507210142 66 171 2.0 13.0 0.00 0.00 0.00 31 1013.9
20260507204543 64 249 5.0 13.0 0.00 0.00 0.00 30 1014.1
20260507203042 66 232 7.0 19.0 0.00 0.00 0.00 27 1014.4
20260507201541 65 218 4.0 15.0 0.00 0.00 0.00 27 1014.4
20260507200137 64 219 6.0 18.0 0.00 0.00 0.00 26 1014.5
20260507194538 65 267 7.0 20.0 0.00 0.00 0.00 23 1014.5
20260507193044 65 107 1.0 12.0 0.00 0.00 0.00 24 1014.6
20260507191536 66 219 5.0 10.0 0.00 0.00 0.00 22 1014.8
20260507190137 64 202 3.0 12.0 0.00 0.00 0.00 21 1014.9
20260507184534 64 268 4.0 24.0 0.00 0.00 0.00 19 1015.1
20260507183039 64 246 6.0 14.0 0.00 0.00 0.00 18 1015.1
20260507181535 65 206 1.0 8.0 0.00 0.00 0.00 18 1015.1
20260507180131 65 298 2.0 7.0 0.00 0.00 0.00 20 1015.2
20260507174532 64 260 2.0 14.0 0.00 0.00 0.00 23 1015.3
20260507173028 63 263 3.0 9.0 0.00 0.00 0.00 24 1015.2
20260507171524 61 200 2.0 13.0 0.00 0.00 0.00 25 1015.3
20260507170124 61 180 3.0 16.0 0.00 0.00 0.00 24 1015.4
20260507164525 60 203 5.0 15.0 0.00 0.00 0.00 22 1015.4
20260507163026 61 172 4.0 20.0 0.00 0.00 0.00 21 1015.5
20260507161528 59 263 4.0 11.0 0.00 0.00 0.00 22 1015.5
20260507160120 58 128 1.0 4.0 0.00 0.00 0.00 27 1015.5
20260507154516 58 22 0.0 3.0 0.00 0.00 0.00 29 1015.6
20260507153013 56 71 0.0 4.0 0.00 0.00 0.00 30 1015.7
20260507151512 56 103 0.0 1.0 0.00 0.00 0.00 33 1015.7
20260507150110 54 58 0.0 0.0 0.00 0.00 0.00 31 1015.8
20260507144515 54 57 0.0 0.0 0.00 0.00 0.00 33 1015.8
20260507143009 52 225 0.0 0.0 0.00 0.00 0.00 45 1015.7
20260507141505 49 279 0.0 0.0 0.00 0.00 0.00 42 1015.5
20260507134600 41 279 0.0 0.0 0.00 0.00 0.00 46 1015.1
20260507133053 0 0.0 0.0 0.00 0.00 0.00 1014.7
20260507131547 0 0.0 0.0 0.00 0.00 0.00 1014.8
20260507130057 0 0.0 0.0 0.00 0.00 0.00 1015.1
20260507124549 0 0.0 0.0 0.00 0.00 0.00 1015.4
20260507123041 0 0.0 0.0 0.00 0.00 0.00 1015.8
20260507121531 37 275 0.0 0.0 0.00 0.00 0.00 65 1016.1
20260507120035 38 277 0.0 0.0 0.00 0.00 0.00 62 1016.3
20260507114528 37 280 0.0 1.0 0.00 0.00 0.00 64 1016.3